Location: Newark
(40.7060°N, 73.9980°W)
Time: 14:37:04
(UTC+00:00)

X-37B - Pass Details

Date: 10 March 2021
Orbit: 380 x 394 km, 45.0° (Epoch: 07 April)

Event Time Altitude Azimuth Distance (km) Brightness Sun altitude
Rises 00:09:32 0° 204° (SSW) 2,258 4.7 -14.6°
Reaches altitude 10° 00:12:07 10° 182° (S) 1,411 3.4 -15.1°
Enters shadow 00:13:16 15° 162° (SSE) 1,177 2.8 -15.3°
